Miscellaneous Local Product
Issued by NWS Hastings, NE

Home | Current Version | Previous Version | Text Only | Print | Product List | Glossary Off
Versions: 1 2 3 4 5 6 7 8 9 10 11 12 13 14 15 16 17 18 19 20 21 22 23 24 25 26 27 28 29 30 31 32 33 34 35 36 37 38 39 40 41 42 43 44 45 46 47 48 49 50

000
AXUS43 KGID 200902
MISGRI

GID CWA HOURLY WEATHER ROUNDUP
NATIONAL WEATHER SERVICE HASTINGS NE
400 AM CDT SAT SEP 20 2014

NOTE: "FAIR" INDICATES FEW OR NO CLOUDS BELOW 12,000 FEET WITH NO
SIGNIFICANT WEATHER AND/OR OBSTRUCTIONS TO VISIBILITY.

...SOUTH CENTRAL NEBRASKA...

CITY           SKY/WX    TMP DP  RH WIND       PRES   REMARKS
GRAND ISLAND   MOCLDY    73  61  65 SW14      29.86S
HASTINGS       MOCLDY    71  58  63 SW9       29.87S
KEARNEY        MOCLDY    70  61  73 S12       29.87F
ORD            CLEAR     66  61  84 N5        29.86S
YORK           MOCLDY    70  63  78 SW8       29.86S
AURORA         MOCLDY    70  60  70 SW7       29.86R
LEXINGTON      MOCLDY    71  61  71 SW3       29.88S
HOLDREGE       MOCLDY    68  59  74 SW5       29.88F
HEBRON         CLEAR     70  61  73 SW13G18   29.87F

...NEBRASKA PANHANDLE...

CITY           SKY/WX    TMP DP  RH WIND       PRES   REMARKS
CHADRON        PTCLDY    53  50  89 W5        30.05R
ALLIANCE       CLEAR     56  50  80 N10       30.04R
SCOTTSBLUFF    CLEAR     59  49  69 NW6       30.06R
SIDNEY         CLEAR     58  52  80 NW10      30.03R

...WESTERN AND NORTH CENTRAL NEBRASKA...

CITY           SKY/WX    TMP DP  RH WIND       PRES   REMARKS
VALENTINE      CLEAR     56  53  90 W8        29.96R
AINSWORTH      PTCLDY    59  54  83 NW8       29.95R
ONEILL         CLEAR     61  58  90 NW6       29.90R
BROKEN BOW     PTCLDY    63  59  87 N7        29.90R
IMPERIAL       PTCLDY    62  55  77 W9        29.92R
NORTH PLATTE   PTCLDY    63  59  87 CALM      29.90R
MCCOOK         PTCLDY    68  61  78 SW8       29.89S

...EASTERN NEBRASKA...

CITY           SKY/WX    TMP DP  RH WIND       PRES   REMARKS
NORFOLK        CLOUDY    70  64  81 SW12      29.84R
SO SIOUX CITY  MOCLDY    64  63  96 E5        29.80S
TEKAMAH        CLOUDY    69  66  90 SE7       29.82F
ALBION         MOCLDY    69  64  84 NW3       29.86R
OMAHA EPPLEY   TSTM      71  68  90 E7        29.85S
OFFUTT AFB     HVY RAIN  70  70  99 N3        29.86R FOG
MILLARD        MOCLDY    73  68  84 CALM      29.85R
LINCOLN        CLOUDY    74  63  68 SW10      29.85S
NEBRASKA CITY    N/A     71  67  89 SW14G21   29.84F
BEATRICE       PTCLDY    71  65  82 SW13G18   29.86F
FALLS CITY     CLEAR     69  67  93 SW10      29.88S

...NORTHERN KANSAS...

CITY           SKY/WX    TMP DP  RH WIND       PRES   REMARKS
GOODLAND       PTCLDY    66  61  84 SW13      29.97R
HILL CITY      CLEAR     68  59  73 S7        29.92F
NORTON         SUNNY     70  57  64 S13       29.88
SMITH CENTER   CLEAR     66  61  82 S10       29.90F
BELOIT         CLEAR     70  63  78 S9        29.90F
HAYS           CLEAR     66  57  72 SW9       29.95R
RUSSELL        CLEAR     70  61  73 S15       29.92R
CONCORDIA      CLEAR     70  64  81 S17G24    29.90S
SALINA         CLEAR     70  65  84 S12       29.93R
TOPEKA         CLEAR     70  69  97 S9        29.93R FOG



USA.gov is the U.S. government's official web portal to all federal, state and local government web resources and services.